| time (UTC) | temp F | wind direction | speed MPH | gust MPH | rain 1hr in | rain 24hr in | rain mn in | humidity % | barometer mb |
| 20260504050457 | 44 | 278 | 0.0 | 0.0 | 0.00 | 0.00 | 0.00 | 73 | 1009.0 |
| 20260504045457 | 44 | 278 | 0.0 | 0.0 | 0.00 | 0.00 | 0.00 | 72 | 1009.1 |
| 20260504044957 | 44 | 278 | 0.0 | 0.0 | 0.00 | 0.00 | 0.00 | 71 | 1009.1 |
| 20260504044556 | 44 | 278 | 0.0 | 0.0 | 0.00 | 0.00 | 0.00 | 71 | 1010.3 |
| 20260504043957 | 44 | 278 | 0.0 | 0.0 | 0.00 | 0.00 | 0.00 | 72 | 1009.4 |
| 20260504043457 | 44 | 278 | 0.0 | 0.0 | 0.00 | 0.00 | 0.00 | 69 | 1009.5 |
| 20260504043113 | 44 | 278 | 0.0 | 0.0 | 0.00 | 0.00 | 0.00 | 69 | 1010.5 |
| 20260504042457 | 44 | 278 | 0.0 | 0.0 | 0.00 | 0.00 | 0.00 | 70 | 1009.6 |
| 20260504041956 | 44 | 278 | 0.0 | 2.0 | 0.00 | 0.00 | 0.00 | 68 | 1009.7 |
| 20260504041556 | 44 | 278 | 0.0 | 2.0 | 0.00 | 0.00 | 0.00 | 68 | 1010.8 |
| 20260504041001 | 44 | 278 | 0.0 | 2.0 | 0.00 | 0.00 | 0.00 | 67 | 1009.9 |
| 20260504040457 | 44 | 278 | 0.0 | 2.0 | 0.00 | 0.00 | 0.00 | 67 | 1009.9 |
| 20260504040100 | 44 | 278 | 0.0 | 2.0 | 0.00 | 0.00 | 0.00 | 65 | 1010.9 |
| 20260504035459 | 44 | 278 | 0.0 | 2.0 | 0.00 | 0.00 | 0.00 | 65 | 1009.9 |
| 20260504034559 | 44 | 278 | 0.0 | 2.0 | 0.00 | 0.00 | 0.00 | 65 | 1010.8 |
| 20260504034002 | 44 | 278 | 0.0 | 1.0 | 0.00 | 0.00 | 0.00 | 65 | 1009.8 |
| 20260504033459 | 44 | 278 | 0.0 | 2.0 | 0.00 | 0.00 | 0.00 | 64 | 1009.8 |
| 20260504033121 | 44 | 278 | 0.0 | 3.0 | 0.00 | 0.00 | 0.00 | 65 | 1010.8 |
| 20260504032500 | 44 | 278 | 0.0 | 3.0 | 0.00 | 0.00 | 0.00 | 65 | 1009.7 |
| 20260504032000 | 44 | 278 | 0.0 | 3.0 | 0.00 | 0.00 | 0.00 | 64 | 1009.6 |
| 20260504031601 | 44 | 278 | 0.0 | 2.0 | 0.00 | 0.00 | 0.00 | 64 | 1010.6 |
| 20260504030959 | 44 | 278 | 0.0 | 0.0 | 0.00 | 0.00 | 0.00 | 64 | 1009.3 |
| 20260504030459 | 43 | 278 | 0.0 | 2.0 | 0.00 | 0.00 | 0.00 | 64 | 1009.3 |
| 20260504030118 | 43 | 278 | 0.0 | 2.0 | 0.00 | 0.00 | 0.00 | 64 | 1010.4 |
| 20260504030003 | 43 | 278 | 0.0 | 0.0 | 0.00 | 0.00 | 0.00 | 64 | 1010.5 |
| 20260504025500 | 43 | 278 | 0.0 | 0.0 | 0.00 | 0.00 | 0.00 | 64 | 1009.3 |
| 20260504025005 | 43 | 278 | 0.0 | 2.0 | 0.00 | 0.00 | 0.00 | 65 | 1009.4 |
| 20260504024601 | 43 | 278 | 0.0 | 2.0 | 0.00 | 0.00 | 0.00 | 65 | 1010.4 |
| 20260504024000 | 42 | 278 | 0.0 | 1.0 | 0.00 | 0.00 | 0.00 | 66 | 1009.4 |
| 20260504023500 | 42 | 278 | 0.0 | 1.0 | 0.00 | 0.00 | 0.00 | 65 | 1009.3 |
| 20260504023100 | 42 | 278 | 0.0 | 1.0 | 0.00 | 0.00 | 0.00 | 65 | 1010.4 |
| 20260504022500 | 42 | 278 | 0.0 | 2.0 | 0.00 | 0.00 | 0.00 | 64 | 1009.3 |
| 20260504022000 | 42 | 278 | 0.0 | 1.0 | 0.00 | 0.00 | 0.00 | 64 | 1009.1 |
| 20260504021600 | 42 | 278 | 0.0 | 2.0 | 0.00 | 0.00 | 0.00 | 65 | 1010.2 |
| 20260504021003 | 42 | 278 | 0.0 | 2.0 | 0.00 | 0.00 | 0.00 | 65 | 1009.1 |
| 20260504020501 | 42 | 278 | 0.0 | 3.0 | 0.00 | 0.00 | 0.00 | 65 | 1009.2 |
| 20260504020108 | 42 | 278 | 0.0 | 3.0 | 0.00 | 0.00 | 0.00 | 64 | 1010.3 |
| 20260504015538 | 42 | 278 | 0.0 | 2.0 | 0.00 | 0.00 | 0.00 | 62 | 1009.2 |
| 20260504015000 | 42 | 278 | 0.0 | 2.0 | 0.00 | 0.00 | 0.00 | 62 | 1009.3 |
| 20260504014608 | 42 | 278 | 0.0 | 2.0 | 0.00 | 0.00 | 0.00 | 61 | 1010.3 |
| 20260504014000 | 43 | 278 | 0.0 | 2.0 | 0.00 | 0.00 | 0.00 | 61 | 1009.1 |
| 20260504013500 | 43 | 278 | 0.0 | 2.0 | 0.00 | 0.00 | 0.00 | 61 | 1009.1 |
| 20260504013100 | 43 | 278 | 0.0 | 2.0 | 0.00 | 0.00 | 0.00 | 61 | 1010.3 |
| 20260504012500 | 43 | 278 | 0.0 | 2.0 | 0.00 | 0.00 | 0.00 | 61 | 1009.3 |
| 20260504012000 | 43 | 278 | 0.0 | 2.0 | 0.00 | 0.00 | 0.00 | 61 | 1009.3 |
| 20260504010501 | 44 | 278 | 0.0 | 2.0 | 0.00 | 0.00 | 0.00 | 56 | 1009.0 |
| 20260504010002 | 44 | 278 | 0.0 | 2.0 | 0.00 | 0.00 | 0.00 | 56 | 1010.0 |
| 20260504005459 | 44 | 278 | 0.0 | 2.0 | 0.00 | 0.00 | 0.00 | 56 | 1008.9 |
| 20260504005000 | 44 | 278 | 0.0 | 2.0 | 0.00 | 0.00 | 0.00 | 56 | 1008.9 |
| 20260504004559 | 45 | 278 | 0.0 | 2.0 | 0.00 | 0.00 | 0.00 | 56 | 1009.9 |
| 20260504003501 | 45 | 278 | 0.0 | 3.0 | 0.00 | 0.00 | 0.00 | 55 | 1008.7 |
| 20260504003107 | 45 | 278 | 0.0 | 4.0 | 0.00 | 0.00 | 0.00 | 54 | 1009.8 |
| 20260504001959 | 46 | 281 | 1.0 | 4.0 | 0.00 | 0.00 | 0.00 | 54 | 1008.8 |
| 20260504001602 | 46 | 279 | 0.0 | 6.0 | 0.00 | 0.00 | 0.00 | 54 | 1009.8 |
| 20260504000006 | 46 | 273 | 1.0 | 4.0 | 0.00 | 0.00 | 0.00 | 49 | 1008.5 |
| 20260504000002 | 46 | 273 | 0.0 | 4.0 | 0.00 | 0.00 | 0.00 | 49 | 1009.7 |
| 20260503235459 | 46 | 277 | 1.0 | 4.0 | 0.00 | 0.00 | 0.00 | 49 | 1008.6 |
| 20260503234959 | 46 | 278 | 1.0 | 3.0 | 0.00 | 0.00 | 0.00 | 49 | 1008.6 |
| 20260503234559 | 47 | 288 | 0.0 | 4.0 | 0.00 | 0.00 | 0.00 | 49 | 1009.7 |
| 20260503233959 | 47 | 273 | 1.0 | 7.0 | 0.00 | 0.00 | 0.00 | 48 | 1008.5 |
| 20260503233502 | 47 | 283 | 1.0 | 8.0 | 0.00 | 0.00 | 0.00 | 47 | 1008.4 |
| 20260503233107 | 47 | 284 | 2.0 | 8.0 | 0.00 | 0.00 | 0.00 | 45 | 1009.4 |
| 20260503232459 | 47 | 303 | 1.0 | 8.0 | 0.00 | 0.00 | 0.00 | 46 | 1008.4 |
| 20260503232002 | 47 | 274 | 2.0 | 5.0 | 0.00 | 0.00 | 0.00 | 46 | 1008.2 |
| 20260503231559 | 48 | 281 | 1.0 | 8.0 | 0.00 | 0.00 | 0.00 | 46 | 1009.3 |
| 20260503230504 | 48 | 311 | 2.0 | 7.0 | 0.00 | 0.00 | 0.00 | 43 | 1007.9 |
| 20260503230113 | 49 | 290 | 0.0 | 4.0 | 0.00 | 0.00 | 0.00 | 44 | 1009.2 |
| 20260503225459 | 49 | 246 | 2.0 | 8.0 | 0.00 | 0.00 | 0.00 | 43 | 1008.1 |
| 20260503224704 | 49 | 298 | 1.0 | 17.0 | 0.00 | 0.00 | 0.00 | 42 | 1009.1 |
| 20260503224001 | 49 | 296 | 3.0 | 17.0 | 0.00 | 0.00 | 0.00 | 40 | 1007.9 |
| 20260503223459 | 49 | 294 | 3.0 | 15.0 | 0.00 | 0.00 | 0.00 | 39 | 1007.9 |
| 20260503223113 | 49 | 285 | 3.0 | 15.0 | 0.00 | 0.00 | 0.00 | 38 | 1009.1 |
| 20260503221559 | 50 | 244 | 2.0 | 12.0 | 0.00 | 0.00 | 0.00 | 38 | 1008.8 |
| 20260503220459 | 51 | 258 | 2.0 | 12.0 | 0.00 | 0.00 | 0.00 | 36 | 1007.6 |
| 20260503220101 | 51 | 304 | 1.0 | 10.0 | 0.00 | 0.00 | 0.00 | 36 | 1008.8 |
| 20260503220006 | 51 | 284 | 2.0 | 10.0 | 0.00 | 0.00 | 0.00 | 36 | 1008.8 |
| 20260503220003 | 51 | 284 | 2.0 | 10.0 | 0.00 | 0.00 | 0.00 | 36 | 1007.6 |
| 20260503214959 | 51 | 292 | 2.0 | 9.0 | 0.00 | 0.00 | 0.00 | 35 | 1007.6 |
| 20260503214601 | 51 | 277 | 1.0 | 9.0 | 0.00 | 0.00 | 0.00 | 35 | 1008.8 |
| 20260503214007 | 51 | 304 | 3.0 | 13.0 | 0.00 | 0.00 | 0.00 | 35 | 1007.6 |
| 20260503213503 | 51 | 282 | 3.0 | 13.0 | 0.00 | 0.00 | 0.00 | 33 | 1007.7 |
| 20260503213059 | 51 | 282 | 2.0 | 12.0 | 0.00 | 0.00 | 0.00 | 34 | 1008.7 |
| 20260503212000 | 52 | 291 | 2.0 | 10.0 | 0.00 | 0.00 | 0.00 | 34 | 1007.6 |
| 20260503211002 | 52 | 302 | 3.0 | 13.0 | 0.00 | 0.00 | 0.00 | 32 | 1007.5 |
| 20260503210459 | 52 | 325 | 2.0 | 11.0 | 0.00 | 0.00 | 0.00 | 32 | 1007.7 |
| 20260503210059 | 52 | 258 | 2.0 | 9.0 | 0.00 | 0.00 | 0.00 | 31 | 1008.7 |
| 20260503205502 | 51 | 286 | 2.0 | 9.0 | 0.00 | 0.00 | 0.00 | 32 | 1007.7 |
| 20260503204559 | 51 | 268 | 2.0 | 11.0 | 0.00 | 0.00 | 0.00 | 32 | 1008.7 |
| 20260503203959 | 52 | 272 | 3.0 | 11.0 | 0.00 | 0.00 | 0.00 | 32 | 1007.6 |
| 20260503203500 | 51 | 307 | 2.0 | 6.0 | 0.00 | 0.00 | 0.00 | 35 | 1007.7 |
| 20260503203059 | 51 | 283 | 2.0 | 10.0 | 0.00 | 0.00 | 0.00 | 33 | 1008.8 |
| 20260503202459 | 51 | 291 | 3.0 | 10.0 | 0.00 | 0.00 | 0.00 | 34 | 1007.9 |
| 20260503201559 | 51 | 244 | 5.0 | 13.0 | 0.00 | 0.00 | 0.00 | 33 | 1009.1 |
| 20260503201500 | 51 | 271 | 4.0 | 13.0 | 0.00 | 0.00 | 0.00 | 33 | 1007.8 |
| 20260503201000 | 51 | 266 | 3.0 | 11.0 | 0.00 | 0.00 | 0.00 | 33 | 1008.0 |
| 20260503200459 | 51 | 304 | 3.0 | 8.0 | 0.00 | 0.00 | 0.00 | 34 | 1007.9 |
| 20260503200100 | 51 | 302 | 3.0 | 7.0 | 0.00 | 0.00 | 0.00 | 33 | 1009.1 |
| 20260503200000 | 51 | 298 | 3.0 | 8.0 | 0.00 | 0.00 | 0.00 | 35 | 1007.9 |
| 20260503195500 | 51 | 301 | 3.0 | 11.0 | 0.00 | 0.00 | 0.00 | 33 | 1007.8 |
| 20260503194624 | 52 | 297 | 2.0 | 8.0 | 0.00 | 0.00 | 0.00 | 35 | 1009.1 |
| 20260503194509 | 51 | 304 | 2.0 | 8.0 | 0.00 | 0.00 | 0.00 | 36 | 1007.9 |
| 20260503193959 | 51 | 311 | 3.0 | 11.0 | 0.00 | 0.00 | 0.00 | 36 | 1007.9 |
| 20260503193101 | 51 | 284 | 6.0 | 16.0 | 0.00 | 0.00 | 0.00 | 35 | 1009.3 |
| 20260503193035 | 51 | 350 | 2.0 | 16.0 | 0.00 | 0.00 | 0.00 | 38 | 1008.1 |
| 20260503192459 | 51 | 273 | 2.0 | 13.0 | 0.00 | 0.00 | 0.00 | 36 | 1008.1 |
| 20260503191612 | 50 | 281 | 2.0 | 7.0 | 0.00 | 0.00 | 0.00 | 39 | 1009.5 |
| 20260503190958 | 51 | 290 | 2.0 | 5.0 | 0.00 | 0.00 | 0.00 | 39 | 1008.3 |
| 20260503190459 | 51 | 229 | 2.0 | 9.0 | 0.00 | 0.00 | 0.00 | 42 | 1008.4 |
| 20260503190059 | 51 | 273 | 2.0 | 9.0 | 0.00 | 0.00 | 0.00 | 40 | 1009.6 |
| 20260503185000 | 50 | 298 | 2.0 | 8.0 | 0.00 | 0.00 | 0.00 | 40 | 1008.5 |
| 20260503183959 | 48 | 309 | 2.0 | 11.0 | 0.00 | 0.00 | 0.00 | 45 | 1008.6 |
| 20260503183458 | 48 | 289 | 2.0 | 11.0 | 0.00 | 0.00 | 0.00 | 42 | 1008.8 |
| 20260503183105 | 48 | 253 | 3.0 | 8.0 | 0.00 | 0.00 | 0.00 | 42 | 1010.1 |
| 20260503181958 | 48 | 314 | 2.0 | 6.0 | 0.00 | 0.00 | 0.00 | 44 | 1008.9 |
| 20260503181608 | 48 | 298 | 1.0 | 8.0 | 0.00 | 0.00 | 0.00 | 41 | 1010.2 |
| 20260503181002 | 48 | 312 | 3.0 | 12.0 | 0.00 | 0.00 | 0.00 | 43 | 1008.9 |
| 20260503180501 | 47 | 320 | 3.0 | 12.0 | 0.00 | 0.00 | 0.00 | 45 | 1009.1 |
| 20260503180059 | 47 | 271 | 4.0 | 11.0 | 0.00 | 0.00 | 0.00 | 43 | 1010.2 |
| 20260503175501 | 47 | 287 | 3.0 | 13.0 | 0.00 | 0.00 | 0.00 | 43 | 1009.0 |
| 20260503175046 | 47 | 302 | 3.0 | 13.0 | 0.00 | 0.00 | 0.00 | 42 | 1008.9 |
| 20260503174613 | 47 | 307 | 1.0 | 10.0 | 0.00 | 0.00 | 0.00 | 44 | 1010.1 |
| 20260503173958 | 47 | 316 | 3.0 | 11.0 | 0.00 | 0.00 | 0.00 | 46 | 1009.2 |
| 20260503173110 | 45 | 281 | 1.0 | 8.0 | 0.00 | 0.00 | 0.00 | 52 | 1010.4 |
| 20260503172458 | 45 | 283 | 2.0 | 7.0 | 0.00 | 0.00 | 0.00 | 50 | 1009.2 |
| 20260503171958 | 45 | 246 | 2.0 | 5.0 | 0.00 | 0.00 | 0.00 | 48 | 1009.2 |
| 20260503171559 | 45 | 277 | 2.0 | 6.0 | 0.00 | 0.00 | 0.00 | 48 | 1010.5 |
| 20260503171012 | 45 | 293 | 2.0 | 6.0 | 0.00 | 0.00 | 0.00 | 51 | 1009.4 |
| 20260503170458 | 45 | 301 | 2.0 | 6.0 | 0.00 | 0.00 | 0.00 | 49 | 1009.6 |
| 20260503151008 | 43 | 290 | 2.0 | 9.0 | 0.00 | 0.00 | 0.00 | 55 | 1009.8 |
| 20260503150458 | 43 | 310 | 3.0 | 6.0 | 0.00 | 0.00 | 0.00 | 57 | 1009.9 |
| 20260503130959 | 40 | 279 | 2.0 | 8.0 | 0.00 | 0.00 | 0.00 | 74 | 1010.2 |
| 20260503130458 | 39 | 284 | 2.0 | 7.0 | 0.00 | 0.00 | 0.00 | 73 | 1010.1 |
| 20260503120117 | 37 | 271 | 2.0 | 9.0 | 0.00 | 0.00 | 0.00 | 82 | 1011.2 |
| 20260503110457 | 35 | 277 | 1.0 | 4.0 | 0.00 | 0.00 | 0.00 | 85 | 1009.9 |
| 20260503090457 | 34 | 271 | 1.0 | 3.0 | 0.00 | 0.00 | 0.00 | 84 | 1009.2 |
| 20260503081558 | 35 | 304 | 1.0 | 4.0 | 0.00 | 0.01 | 0.00 | 83 | 1010.4 |
| 20260503081000 | 35 | 285 | 1.0 | 3.0 | 0.00 | 0.01 | 0.00 | 83 | 1009.6 |
| 20260503071958 | 34 | 270 | 1.0 | 7.0 | 0.00 | 0.01 | 0.00 | 83 | 1009.7 |
| 20260503071600 | 34 | 285 | 0.0 | 8.0 | 0.00 | 0.01 | 0.00 | 83 | 1010.7 |
| 20260503070957 | 34 | 275 | 1.0 | 8.0 | 0.00 | 0.01 | 0.00 | 83 | 1009.8 |